User: anonymous   Login
Location: Unspecified
(0.0000°N, 0.0000°E)
Time: 19:01:25
(UTC+00:00)
Language:

PAYLOAD G - Orbit

View from above orbital plane
View from above orbital plane
View from above satellite
View from above satellite

Ground track
Ground track

The orbit data is extracted from the following two-line orbital elements,

1 27846U 03031G   17084.94299992 +.00000053 +00000-0 +43706-4 0  9999
2 27846 098.6845 094.0104 0008877 195.2795 164.8116 14.22094763712482
Epoch (UTC): 25 March 2017 22:37:55
Eccentricity: 0.0008877
inclination: 98.6845°
perigee height: 812 km
apogee height: 824 km
right ascension of ascending node: 94.0104°
argument of perigee: 195.2795°
revolutions per day: 14.22094763
mean anomaly at epoch: 164.8116°
orbit number at epoch: 71248

The dashed part of the orbit path shows where the satellite is in the earth's shadow,  

DLR